datetime,storage
2008-01-01,9637.42043
2008-01-02,9637.08281
2008-01-03,9636.73573
2008-01-04,9636.21526
2008-01-05,9635.53711
2008-01-06,9634.8024
2008-01-07,9634.10711
2008-01-08,9636.18256
2008-01-09,9635.72183
2008-01-10,9635.41937
2008-01-11,9634.96786
2008-01-12,9634.49832
2008-01-13,9634.03785
2008-01-14,9633.57682
2008-01-15,9633.10688
2008-01-16,9632.6349
2008-01-17,9632.50109
2008-01-18,9632.27956
2008-01-19,9631.98561
2008-01-20,9631.6657
2008-01-21,9631.27768
2008-01-22,9630.80356
2008-01-23,9630.45072
2008-01-24,9630.07345
2008-01-25,9630.20938
2008-01-26,9629.85645
2008-01-27,9629.5097
2008-01-28,9631.34305
2008-01-29,9631.6858
2008-01-30,9631.44508
2008-01-31,9631.2211
2008-02-01,9630.94958
2008-02-02,9630.52087
2008-02-03,9630.7923
2008-02-04,9630.64588
2008-02-05,9634.8349
2008-02-06,9634.54197
2008-02-07,9634.24183
2008-02-08,9633.89891
2008-02-09,9633.45633
2008-02-10,9633.02066
2008-02-11,9632.49346
2008-02-12,9631.97459
2008-02-13,9631.46836
2008-02-14,9630.81581
2008-02-15,9630.21547
2008-02-16,9629.65955
2008-02-17,9629.069
2008-02-18,9628.56272
2008-02-19,9628.00605
2008-02-20,9627.37235
2008-02-21,9629.03952
2008-02-22,9628.40045
2008-02-23,9630.22867
2008-02-24,9632.25836
2008-02-25,9632.90434
2008-02-26,9632.22312
2008-02-27,9631.50371
2008-02-28,9630.72665
2008-02-29,9629.83692
2008-03-01,9628.267
2008-03-02,9626.46211
2008-03-03,9625.76652
2008-03-04,9624.65098
2008-03-05,9623.27797
2008-03-06,9622.14325
2008-03-07,9621.1328
2008-03-08,9619.92041
2008-03-09,9618.43277
2008-03-10,9617.07057
2008-03-11,9615.62575
2008-03-12,9614.06591
2008-03-13,9612.4472
2008-03-14,9610.8313
2008-03-15,9609.32924
2008-03-16,9607.7709
2008-03-17,9606.17592
2008-03-18,9604.79491
2008-03-19,9603.31678
2008-03-20,9601.64108
2008-03-21,9599.8371
2008-03-22,9598.22003
2008-03-23,9596.56501
2008-03-24,9595.02382
2008-03-25,9593.27378
2008-03-26,9591.44911
2008-03-27,9589.45954
2008-03-28,9587.62783
2008-03-29,9585.80356
2008-03-30,9583.99794
2008-03-31,9582.00181
2008-04-01,9579.71098
2008-04-02,9575.47519
2008-04-03,9570.6696
2008-04-04,9568.03981
2008-04-05,9564.38696
2008-04-06,9560.50982
2008-04-07,9556.52023
2008-04-08,9554.35348
2008-04-09,9550.93194
2008-04-10,9549.79187
2008-04-11,9549.44966
2008-04-12,9548.47074
2008-04-13,9545.84294
2008-04-14,9544.24462
2008-04-15,9540.70058
2008-04-16,9537.25131
2008-04-17,9534.0316
2008-04-18,9530.81099
2008-04-19,9526.78294
2008-04-20,9523.89614
2008-04-21,9520.6473
2008-04-22,9515.19558
2008-04-23,9513.45584
2008-04-24,9508.70201
2008-04-25,9507.07831
2008-04-26,9500.92822
2008-04-27,9498.36049
2008-04-28,9495.18472
2008-04-29,9491.30198
2008-04-30,9485.67459
2008-05-01,9477.5894
2008-05-02,9473.84073
2008-05-03,9469.97689
2008-05-04,9466.34912
2008-05-05,9462.1373
2008-05-06,9457.69147
2008-05-07,9453.36598
2008-05-08,9447.87429
2008-05-09,9444.02042
2008-05-10,9440.2843
2008-05-11,9434.68302
2008-05-12,9430.48205
2008-05-13,9425.92865
2008-05-14,9421.95901
2008-05-15,9423.86142
2008-05-16,9428.66748
2008-05-17,9426.33059
2008-05-18,9423.40137
2008-05-19,9420.70599
2008-05-20,9415.80359
2008-05-21,9410.30087
2008-05-22,9403.8872
2008-05-23,9409.19453
2008-05-24,9416.18152
2008-05-25,9414.84417
2008-05-26,9410.71677
2008-05-27,9406.45172
2008-05-28,9401.34272
2008-05-29,9397.54584
2008-05-30,9392.3602
2008-05-31,9388.19229
2008-06-01,9384.25636
2008-06-02,9378.98593
2008-06-03,9371.74974
2008-06-04,9365.8899
2008-06-05,9362.30277
2008-06-06,9359.37351
2008-06-07,9355.29188
2008-06-08,9351.10378
2008-06-09,9348.16567
2008-06-10,9342.33715
2008-06-11,9336.05489
2008-06-12,9330.56432
2008-06-13,9324.20215
2008-06-14,9319.45096
2008-06-15,9314.47475
2008-06-16,9310.94033
2008-06-17,9304.8342
2008-06-18,9299.36514
2008-06-19,9293.76865
2008-06-20,9287.82899
2008-06-21,9286.79584
2008-06-22,9285.43681
2008-06-23,9282.0301
2008-06-24,9278.43659
2008-06-25,9274.08425
2008-06-26,9267.93563
2008-06-27,9263.28519
2008-06-28,9392.6406
2008-06-29,8597.85113
2008-06-30,8227.63996
2008-07-01,7071.92576
2008-07-02,6327.49534
2008-07-03,6091.81324
2008-07-04,6090.14299
2008-07-05,6087.71675
2008-07-06,6084.46509
2008-07-07,6083.94697
2008-07-08,6082.58101
2008-07-09,6079.78194
2008-07-10,6077.02968
2008-07-11,6074.4662
2008-07-12,6073.55418
2008-07-13,6074.28397
2008-07-14,6072.7667
2008-07-15,6070.94677
2008-07-16,6069.96163
2008-07-17,6070.66564
2008-07-18,6068.10681
2008-07-19,6069.21216
2008-07-20,6068.07517
2008-07-21,6066.89089
2008-07-22,6066.75152
2008-07-23,6064.52799
2008-07-24,6061.74412
2008-07-25,6059.34603
2008-07-26,6057.39089
2008-07-27,6056.74426
2008-07-28,6054.42666
2008-07-29,6051.21332
2008-07-30,6050.31622
2008-07-31,6046.72709
2008-08-01,6044.17785
2008-08-02,6041.47801
2008-08-03,6038.10359
2008-08-04,6035.56056
2008-08-05,6033.38862
2008-08-06,6030.98929
2008-08-07,6029.11251
2008-08-08,6028.79059
2008-08-09,6026.86886
2008-08-10,6024.91763
2008-08-11,6023.49584
2008-08-12,6021.7752
2008-08-13,6018.2566
2008-08-14,6014.65532
2008-08-15,6012.25678
2008-08-16,6010.09267
2008-08-17,6007.91859
2008-08-18,6007.40418
2008-08-19,6005.7554
2008-08-20,6002.53528
2008-08-21,5999.99091
2008-08-22,5996.9947
2008-08-23,5995.04666
2008-08-24,5993.02189
2008-08-25,5991.43659
2008-08-26,5988.81245
2008-08-27,5989.17644
2008-08-28,5985.83379
2008-08-29,5983.45312
2008-08-30,5982.10331
2008-08-31,5981.07169
2008-09-01,5983.39328
2008-09-02,5982.1353
2008-09-03,5978.87289
2008-09-04,5978.1517
2008-09-05,5975.56277
2008-09-06,5971.89037
2008-09-07,5969.60373
2008-09-08,5967.37792
2008-09-09,5964.70587
2008-09-10,5967.80631
2008-09-11,5964.46101
2008-09-12,5962.82549
2008-09-13,5961.70863
2008-09-14,5959.55008
2008-09-15,5958.56738
2008-09-16,5958.01599
2008-09-17,5955.33989
2008-09-18,5953.92603
2008-09-19,5951.84219
2008-09-20,5950.35233
2008-09-21,5948.78681
2008-09-22,5947.66795
2008-09-23,5945.80118
2008-09-24,5943.26099
2008-09-25,5941.76553
2008-09-26,5939.22692
2008-09-27,5937.28678
2008-09-28,5935.04831
2008-09-29,5932.73623
2008-09-30,5930.12615
2008-10-01,5927.88904
2008-10-02,5926.24878
2008-10-03,5924.30962
2008-10-04,5922.66863
2008-10-05,5925.78162
2008-10-06,5923.76655
2008-10-07,5922.27572
2008-10-08,5921.0836
2008-10-09,5919.51916
2008-10-10,5917.6576
2008-10-11,5916.83869
2008-10-12,5919.06033
2008-10-13,5917.42186
2008-10-14,5916.30648
2008-10-15,5916.43395
2008-10-16,5915.17172
2008-10-17,5913.83984
2008-10-18,5912.28662
2008-10-19,5910.66145
2008-10-20,5908.81753
2008-10-21,5907.34536
2008-10-22,5906.09426
2008-10-23,5904.99196
2008-10-24,5903.44764
2008-10-25,5901.82847
2008-10-26,5900.061
2008-10-27,5897.62939
2008-10-28,5896.81926
2008-10-29,5895.4929
2008-10-30,5894.01962
2008-10-31,5892.77412
2008-11-01,5891.94404
2008-11-02,5891.13985
2008-11-03,5890.29849
2008-11-04,5889.54599
2008-11-05,5888.84482
2008-11-06,5888.36678
2008-11-07,5887.92562
2008-11-08,5887.36698
2008-11-09,5886.73482
2008-11-10,5886.33483
2008-11-11,5885.85729
2008-11-12,5885.28438
2008-11-13,5884.64537
2008-11-14,5883.95512
2008-11-15,5883.25018
2008-11-16,5882.58196
2008-11-17,5881.94311
2008-11-18,5881.23065
2008-11-19,5880.53288
2008-11-20,5879.84263
2008-11-21,5879.25518
2008-11-22,5878.68976
2008-11-23,5878.117
2008-11-24,5877.5294
2008-11-25,5876.98587
2008-11-26,5876.42766
2008-11-27,5875.81787
2008-11-28,5877.38316
2008-11-29,5876.74381
2008-11-30,5876.13928
2008-12-01,5875.70463
2008-12-02,5875.2541
2008-12-03,5874.75055
2008-12-04,5874.35962
2008-12-05,5873.98434
2008-12-06,5873.59732
2008-12-07,5873.17893
2008-12-08,5872.73464
2008-12-09,5873.19411
2008-12-10,5872.87219
2008-12-11,5872.50838
2008-12-12,5872.13441
2008-12-13,5871.78713
2008-12-14,5871.47171
2008-12-15,5871.15132
2008-12-16,5556.0965
2008-12-17,4884.19756
2008-12-18,4180.98376
2008-12-19,3947.77252
2008-12-20,3613.02405
2008-12-21,3168.83097
2008-12-22,2918.53843
2008-12-23,2624.92519
2008-12-24,2371.21277
2008-12-25,2643.66678
2008-12-26,2916.10749
2008-12-27,3190.64673
2008-12-28,3501.19775
2008-12-29,3773.69109
2008-12-30,4046.99025
2008-12-31,4402.51496
2009-01-01,4865.18527
2009-01-02,4876.1877
2009-01-03,4927.20149
2009-01-04,4952.18028
2009-01-05,5003.97725
2009-01-06,5087.16074
2009-01-07,5096.53079
2009-01-08,5184.12086
2009-01-09,5437.69473
2009-01-10,5732.63254
2009-01-11,6026.60195
2009-01-12,6091.37975
2009-01-13,6091.03888
2009-01-14,6090.69141
2009-01-15,6090.32391
2009-01-16,6089.94372
2009-01-17,6089.5772
2009-01-18,6089.21073
2009-01-19,6088.82153
2009-01-20,6088.43227
2009-01-21,6088.05722
2009-01-22,6087.65415
2009-01-23,6087.19458
2009-01-24,6086.76256
2009-01-25,6086.29856
2009-01-26,6085.83801
2009-01-27,6085.42788
2009-01-28,6085.13149
2009-01-29,6084.79449
2009-01-30,6084.463
2009-01-31,6084.07433
2009-02-01,6083.53915
2009-02-02,6083.05399
2009-02-03,6082.57592
2009-02-04,6082.02711
2009-02-05,6081.48633
2009-02-06,6080.91891
2009-02-07,6080.35241
2009-02-08,6079.72959
2009-02-09,6079.08516
2009-02-10,6079.01062
2009-02-11,6078.56644
2009-02-12,6078.06094
2009-02-13,6077.48683
2009-02-14,6077.00026
2009-02-15,6076.58109
2009-02-16,6076.07175
2009-02-17,6075.48213
2009-02-18,6074.91886
2009-02-19,6074.44768
2009-02-20,6073.95339
2009-02-21,6073.4321
2009-02-22,6072.8202
2009-02-23,6072.10225
2009-02-24,6071.29765
2009-02-25,6070.61204
2009-02-26,6069.80704
2009-02-27,6069.12344
2009-02-28,6068.48759
2009-03-01,6067.5273
2009-03-02,6066.45217
2009-03-03,6065.28361
2009-03-04,6064.10325
2009-03-05,6062.81094
2009-03-06,6061.48135
2009-03-07,6060.25085
2009-03-08,6059.39397
2009-03-09,6058.25227
2009-03-10,6057.11169
2009-03-11,6056.25667
2009-03-12,6055.26551
2009-03-13,6056.42106
2009-03-14,6056.46446
2009-03-15,6055.49728
2009-03-16,6054.49305
2009-03-17,6053.33961
2009-03-18,6052.14876
2009-03-19,6050.85795
2009-03-20,6049.5743
2009-03-21,6048.24993
2009-03-22,6046.84111
2009-03-23,6045.63986
2009-03-24,6044.74437
2009-03-25,6043.70271
2009-03-26,6042.70877
2009-03-27,6044.23068
2009-03-28,6043.5023
2009-03-29,6042.49396
2009-03-30,6041.46413
2009-03-31,6040.65497
2009-04-01,6039.1671
2009-04-02,6037.66636
2009-04-03,6035.49049
2009-04-04,6033.18096
2009-04-05,6031.98957
2009-04-06,6030.20743
2009-04-07,6029.02449
2009-04-08,6027.69334
2009-04-09,6025.02897
2009-04-10,6023.03526
2009-04-11,6020.91616
2009-04-12,6023.20429
2009-04-13,6026.45481
2009-04-14,6025.12581
2009-04-15,6023.4993
2009-04-16,6020.904
2009-04-17,6019.78826
2009-04-18,6020.02401
2009-04-19,6018.29847
2009-04-20,6016.87732
2009-04-21,6015.67687
2009-04-22,6014.10195
2009-04-23,6010.60516
2009-04-24,6008.4555
2009-04-25,6004.9019
2009-04-26,6002.38045
2009-04-27,5999.55554
2009-04-28,5997.45859
2009-04-29,5995.06302
2009-04-30,5993.81117
2009-05-01,5991.18664
2009-05-02,5990.0321
2009-05-03,5988.50802
2009-05-04,5987.28444
2009-05-05,5984.4157
2009-05-06,5981.71821
2009-05-07,5978.81004
2009-05-08,5975.17925
2009-05-09,5972.24803
2009-05-10,5969.41645
2009-05-11,5967.30225
2009-05-12,5965.38392
2009-05-13,5962.48255
2009-05-14,5960.63943
2009-05-15,5956.80562
2009-05-16,5953.54675
2009-05-17,5953.22451
2009-05-18,5952.26209
2009-05-19,5951.01337
2009-05-20,5949.59591
2009-05-21,5948.23378
2009-05-22,5949.11793
2009-05-23,5948.61254
2009-05-24,5948.23606
2009-05-25,5948.74015
2009-05-26,5947.2778
2009-05-27,5946.78181
2009-05-28,5948.85461
2009-05-29,5946.42616
2009-05-30,5945.32559
2009-05-31,5943.93622
2009-06-01,5943.47406
2009-06-02,5940.81687
2009-06-03,5938.72775
2009-06-04,5937.85069
2009-06-05,5935.21572
2009-06-06,5933.91426
2009-06-07,5930.51209
2009-06-08,5927.67004
2009-06-09,5926.81154
2009-06-10,5932.33537
2009-06-11,5931.08267
2009-06-12,5928.34873
2009-06-13,5925.94418
2009-06-14,5924.18179
2009-06-15,5923.52039
2009-06-16,5920.5233
2009-06-17,5917.39641
2009-06-18,5914.75775
2009-06-19,5912.1775
2009-06-20,5910.51318
2009-06-21,5912.25721
2009-06-22,5910.78895
2009-06-23,5906.51116
2009-06-24,5905.25659
2009-06-25,5903.7077
2009-06-26,5906.16014
2009-06-27,5915.80771
2009-06-28,5912.6442
2009-06-29,5911.54694
2009-06-30,5910.51346
2009-07-01,5908.22454
2009-07-02,5905.33719
2009-07-03,5902.9226
2009-07-04,5900.33723
2009-07-05,5898.46668
2009-07-06,5898.44562
2009-07-07,5896.41686
2009-07-08,5892.67182
2009-07-09,5889.58187
2009-07-10,5888.39358
2009-07-11,5887.21678
2009-07-12,5883.1
2009-07-13,5879.72515
2009-07-14,5875.52429
2009-07-15,5872.87052
2009-07-16,5869.47706
2009-07-17,5867.55747
2009-07-18,5864.38074
2009-07-19,5861.79172
2009-07-20,5860.01733
2009-07-21,5858.15876
2009-07-22,5880.25473
2009-07-23,5877.74445
2009-07-24,5876.05304
2009-07-25,5873.17764
2009-07-26,5874.26911
2009-07-27,5873.93309
2009-07-28,5871.36073
2009-07-29,5868.13052
2009-07-30,5867.07899
2009-07-31,5864.94949
2009-08-01,5863.03393
2009-08-02,5859.80912
2009-08-03,5857.75111
2009-08-04,5855.6951
2009-08-05,5854.08757
2009-08-06,5851.23048
2009-08-07,5849.31287
2009-08-08,5846.17683
2009-08-09,5843.32701
2009-08-10,5840.47536
2009-08-11,5837.04246
2009-08-12,5834.27018
2009-08-13,5833.17625
2009-08-14,5834.04955
2009-08-15,5838.21433
2009-08-16,5836.3943
2009-08-17,5832.90244
2009-08-18,5829.63305
2009-08-19,5825.64089
2009-08-20,5823.47241
2009-08-21,5820.65531
2009-08-22,5818.76984
2009-08-23,5816.65613
2009-08-24,5816.06736
2009-08-25,5816.28465
2009-08-26,5814.83774
2009-08-27,5813.03656
2009-08-28,5811.23745
2009-08-29,5809.29415
2009-08-30,5807.48744
2009-08-31,5806.18648
2009-09-01,5804.65346
2009-09-02,5802.48306
2009-09-03,5801.49495
2009-09-04,5800.69924
2009-09-05,5798.95279
2009-09-06,5796.78371
2009-09-07,5795.41541
2009-09-08,5794.3924
2009-09-09,5792.51546
2009-09-10,5790.78583
2009-09-11,5788.98485
2009-09-12,5788.12382
2009-09-13,5786.77678
2009-09-14,5785.63935
2009-09-15,5785.42433
2009-09-16,5783.48044
2009-09-17,5785.05719
2009-09-18,5783.61988
2009-09-19,5781.96802
2009-09-20,5780.60356
2009-09-21,5780.20519
2009-09-22,5777.19963
2009-09-23,5776.62747
2009-09-24,5778.11785
2009-09-25,5776.32981
2009-09-26,5775.54245
2009-09-27,5772.89483
2009-09-28,5770.88358
2009-09-29,5768.58992
2009-09-30,5766.44627
2009-10-01,5764.58961
2009-10-02,5762.16289
2009-10-03,5761.02577
2009-10-04,5759.89689
2009-10-05,5758.76804
2009-10-06,5755.73521
2009-10-07,5755.88895
2009-10-08,5756.34705
2009-10-09,5755.42605
2009-10-10,5753.92584
2009-10-11,5751.92673
2009-10-12,5749.35883
2009-10-13,5748.02599
2009-10-14,5747.66961
2009-10-15,5745.67605
2009-10-16,5743.04576
2009-10-17,5741.83694
2009-10-18,5740.98364
2009-10-19,5739.91688
2009-10-20,5738.27526
2009-10-21,5745.4406
2009-10-22,5745.80622
2009-10-23,5745.38006
2009-10-24,5743.81789
2009-10-25,5742.46911
2009-10-26,5741.04838
2009-10-27,5740.62227
2009-10-28,5740.20623
2009-10-29,5738.92786
2009-10-30,5737.65016
2009-10-31,5736.94022
2009-11-01,5736.26586
2009-11-02,5735.53432
2009-11-03,5734.80316
2009-11-04,5734.07174
2009-11-05,5733.34767
2009-11-06,5732.63111
2009-11-07,5731.88392
2009-11-08,5731.14389
2009-11-09,5730.42568
2009-11-10,5729.73499
2009-11-11,5729.03292
2009-11-12,5728.33065
2009-11-13,5727.60719
2009-11-14,5727.73687
2009-11-15,5727.88573
2009-11-16,5727.46032
2009-11-17,5726.97105
2009-11-18,5726.40385
2009-11-19,5725.79403
2009-11-20,5725.20541
2009-11-21,5724.61685
2009-11-22,5723.98597
2009-11-23,5723.39048
2009-11-24,5722.93685
2009-11-25,5722.46187
2009-11-26,5721.90885
2009-11-27,5721.32057
2009-11-28,5720.71806
2009-11-29,5721.17786
2009-11-30,5720.71002
2009-12-01,5720.34834
2009-12-02,5719.96622
2009-12-03,5719.6096
2009-12-04,5719.4007
2009-12-05,5719.17142
2009-12-06,5718.8912
2009-12-07,5718.56498
2009-12-08,5719.54314
2009-12-09,5719.29861
2009-12-10,5719.11018
2009-12-11,5718.90062
2009-12-12,5718.68601
2009-12-13,5718.35162
2009-12-14,5717.99242
2009-12-15,5717.73307
2009-12-16,5717.45168
2009-12-17,5717.14582
2009-12-18,5716.81029
2009-12-19,5716.5143
2009-12-20,5716.19858
2009-12-21,5715.86673
2009-12-22,5715.52024
2009-12-23,5716.22221
2009-12-24,5718.97943
2009-12-25,5718.79117
2009-12-26,5718.61256
2009-12-27,5718.44062
2009-12-28,5688.92634
2009-12-29,5515.50338
2009-12-30,5431.28746
2009-12-31,5307.14417
2010-01-01,5140.7571
2010-01-02,5195.6044
2010-01-03,5257.21456
2010-01-04,5359.23748
2010-01-05,5468.34403
2010-01-06,5480.70431
2010-01-07,5542.98464
2010-01-08,5600.74354
2010-01-09,5659.99691
2010-01-10,5720.41091
2010-01-11,5819.93378
2010-01-12,6030.16696
2010-01-13,6024.233
2010-01-14,6029.13777
2010-01-15,5992.05218
2010-01-16,5974.59412
2010-01-17,5999.30002
2010-01-18,5981.92645
2010-01-19,6014.59217
2010-01-20,6059.97163
2010-01-21,6169.15976
2010-01-22,6187.50397
2010-01-23,6373.17067
2010-01-24,6376.91635
2010-01-25,6382.38039
2010-01-26,6346.23216
2010-01-27,6324.09398
2010-01-28,6369.80018
2010-01-29,6496.00261
2010-01-30,6496.74362
2010-01-31,6476.88684
2010-02-01,6361.1407
2010-02-02,6406.27355
2010-02-03,6521.60953
2010-02-04,6593.59225
2010-02-05,6615.54597
2010-02-06,6620.11832
2010-02-07,6619.62822
2010-02-08,6620.09366
2010-02-09,6619.66932
2010-02-10,6619.22481
2010-02-11,6664.55429
2010-02-12,6709.39458
2010-02-13,6754.51162
2010-02-14,6770.61974
2010-02-15,6770.16509
2010-02-16,6769.73103
2010-02-17,6769.27634
2010-02-18,6768.78723
2010-02-19,6768.26351
2010-02-20,6767.70545
2010-02-21,6767.40121
2010-02-22,6768.23204
2010-02-23,6769.36954
2010-02-24,6769.03178
2010-02-25,6769.43774
2010-02-26,6769.00331
2010-02-27,6768.53441
2010-02-28,6768.01722
2010-03-01,6768.64407
2010-03-02,6767.71811
2010-03-03,6745.00878
2010-03-04,6744.09725
2010-03-05,6743.11893
2010-03-06,6742.35181
2010-03-07,6741.3737
2010-03-08,6741.73447
2010-03-09,6741.16784
2010-03-10,6680.9241
2010-03-11,6666.92661
2010-03-12,6665.96703
2010-03-13,6664.88404
2010-03-14,6663.63331
2010-03-15,6670.45851
2010-03-16,6669.4677
2010-03-17,6668.29821
2010-03-18,6666.9913
2010-03-19,6665.6858
2010-03-20,6664.94302
2010-03-21,6664.0613
2010-03-22,6662.89517
2010-03-23,6661.64922
2010-03-24,6660.55206
2010-03-25,6659.54966
2010-03-26,6658.38368
2010-03-27,6657.26667
2010-03-28,6656.25532
2010-03-29,6655.11396
2010-03-30,6653.76532
2010-03-31,6652.16875
2010-04-01,6650.50925
2010-04-02,6648.51773
2010-04-03,6646.69269
2010-04-04,6645.28229
2010-04-05,6642.79267
2010-04-06,6638.89291
2010-04-07,6637.81364
2010-04-08,6635.99351
2010-04-09,6633.91846
2010-04-10,6630.59816
2010-04-11,6627.52933
2010-04-12,6626.5414
2010-04-13,6624.41913
2010-04-14,6621.67494
2010-04-15,6618.31822
2010-04-16,6616.33577
2010-04-17,6622.62513
2010-04-18,6620.85811
2010-04-19,6619.55686
2010-04-20,6618.41991
2010-04-21,6615.77716
2010-04-22,6613.68747
2010-04-23,6612.98489
2010-04-24,6611.79762
2010-04-25,6610.94211
2010-04-26,6608.59988
2010-04-27,6606.2609
2010-04-28,6602.89861
2010-04-29,6599.35672
2010-04-30,6596.11712
2010-05-01,6594.6075
2010-05-02,6593.52553
2010-05-03,6594.94413
2010-05-04,6592.58818
2010-05-05,6589.55787
2010-05-06,6585.56249
2010-05-07,6581.21295
2010-05-08,6578.37851
2010-05-09,6575.55368
2010-05-10,6573.27129
2010-05-11,6570.24121
2010-05-12,6566.53493
2010-05-13,6564.60414
2010-05-14,6563.71241
2010-05-15,6564.12682
2010-05-16,6561.66598
2010-05-17,6559.25995
2010-05-18,6556.91525
2010-05-19,6553.24367
2010-05-20,6551.52152
2010-05-21,6547.3229
2010-05-22,6543.93667
2010-05-23,6540.26108
2010-05-24,6537.65713
2010-05-25,6534.71774
2010-05-26,6532.01418
2010-05-27,6529.03889
2010-05-28,6586.50676
2010-05-29,6681.96882
2010-05-30,6776.5319
2010-05-31,7012.93769
2010-06-01,7986.41414
2010-06-02,8958.18071
2010-06-03,8871.37273
2010-06-04,7500.35164
2010-06-05,6588.52338
2010-06-06,5758.25347
2010-06-07,5174.6593
2010-06-08,4854.89502
2010-06-09,4852.10116
2010-06-10,4848.82585
2010-06-11,4846.07591
2010-06-12,4844.10146
2010-06-13,4840.67108
2010-06-14,4839.09514
2010-06-15,4835.55255
2010-06-16,4834.03703
2010-06-17,4830.80907
2010-06-18,4828.527
2010-06-19,4825.38924
2010-06-20,4822.30478
2010-06-21,4819.5199
2010-06-22,4816.23229
2010-06-23,4813.37099
2010-06-24,4810.45134
2010-06-25,4808.28815
2010-06-26,4807.15579
2010-06-27,4805.16954
2010-06-28,4803.43767
2010-06-29,4801.51065
2010-06-30,4798.48617
2010-07-01,4795.90941
2010-07-02,4793.82878
2010-07-03,4791.98778
2010-07-04,4789.99247
2010-07-05,4787.29179
2010-07-06,4784.91833
2010-07-07,4782.15723
2010-07-08,4780.58216
2010-07-09,4778.63739
2010-07-10,4775.60708
2010-07-11,4773.02719
2010-07-12,4770.89748
2010-07-13,4767.5377
2010-07-14,4766.39462
2010-07-15,4765.24999
2010-07-16,4762.20516
2010-07-17,4759.54509
2010-07-18,4757.2057
2010-07-19,4754.7328
2010-07-20,4751.6721
2010-07-21,4750.16181
2010-07-22,4748.43105
2010-07-23,4747.58277
2010-07-24,4748.2835
2010-07-25,4747.52604
2010-07-26,4748.08275
2010-07-27,4747.2381
2010-07-28,4744.26327
2010-07-29,4742.66001
2010-07-30,4740.96086
2010-07-31,4743.74821
2010-08-01,4744.30951
2010-08-02,4742.72485
2010-08-03,4741.17819
2010-08-04,4739.26624
2010-08-05,4737.79332
2010-08-06,4739.38831
2010-08-07,4737.94605
2010-08-08,4736.17436
2010-08-09,4734.37896
2010-08-10,4732.39829
2010-08-11,4729.73511
2010-08-12,4727.63596
2010-08-13,4728.2089
2010-08-14,4725.59232
2010-08-15,4723.62669
2010-08-16,4721.46808
2010-08-17,4721.732
2010-08-18,4719.04953
2010-08-19,4718.91008
2010-08-20,4716.89182
2010-08-21,4714.94854
2010-08-22,4713.43005
2010-08-23,4713.69076
2010-08-24,4713.09948
2010-08-25,4710.2596
2010-08-26,4708.68244
2010-08-27,4706.80771
2010-08-28,4704.61875
2010-08-29,4707.18996
2010-08-30,4706.3708
2010-08-31,4704.39122
2010-09-01,4702.12168
2010-09-02,4699.85579
2010-09-03,4697.70495
2010-09-04,4696.03105
2010-09-05,4693.87813
2010-09-06,4691.97089
2010-09-07,4688.73777
2010-09-08,4687.17904
2010-09-09,4688.53631
2010-09-10,4687.09949
2010-09-11,4684.34615
2010-09-12,4682.90509
2010-09-13,4681.76949
2010-09-14,4680.57546
2010-09-15,4678.66573
2010-09-16,4676.45242
2010-09-17,4674.42838
2010-09-18,4671.98806
2010-09-19,4725.16298
2010-09-20,5053.23556
2010-09-21,5307.00509
2010-09-22,5304.90533
2010-09-23,5310.3243
2010-09-24,5308.84482
2010-09-25,5307.5728
2010-09-26,5306.23504
2010-09-27,5305.03484
2010-09-28,5302.11777
2010-09-29,5299.73232
2010-09-30,5298.74001
2010-10-01,5296.36182
2010-10-02,5294.71209
2010-10-03,5293.12903
2010-10-04,5291.98871
2010-10-05,5289.74883
2010-10-06,5288.3664
2010-10-07,5287.37944
2010-10-08,5286.76006
2010-10-09,5285.2501
2010-10-10,5283.0829
2010-10-11,5282.62268
2010-10-12,5280.85513
2010-10-13,5279.41324
2010-10-14,5278.56134
2010-10-15,5276.9232
2010-10-16,5275.54648
2010-10-17,5274.10407
2010-10-18,5272.91947
2010-10-19,5271.73423
2010-10-20,5269.62575
2010-10-21,5272.08562
2010-10-22,5271.47236
2010-10-23,5270.68113
2010-10-24,5270.30473
2010-10-25,5269.58311
2010-10-26,5268.66491
2010-10-27,5268.00919
2010-10-28,5267.22258
2010-10-29,5265.84087
2010-10-30,5264.72704
2010-10-31,5263.87274
2010-11-01,5262.9377
2010-11-02,5262.04098
2010-11-03,5261.09143
2010-11-04,5260.09249
2010-11-05,5259.16942
2010-11-06,5258.18089
2010-11-07,5257.13616
2010-11-08,5256.20801
2010-11-09,5255.52423
2010-11-10,5254.86103
2010-11-11,5254.175
2010-11-12,5253.51728
2010-11-13,5252.8606
2010-11-14,5252.16581
2010-11-15,5251.43789
2010-11-16,5250.77524
2010-11-17,5249.98715
2010-11-18,5249.25551
2010-11-19,5248.45858
2010-11-20,5247.6146
2010-11-21,5246.62128
2010-11-22,5245.82733
2010-11-23,5245.34174
2010-11-24,5244.60466
2010-11-25,5244.05494
2010-11-26,5243.64526
2010-11-27,5243.07768
2010-11-28,5242.44541
2010-11-29,5241.84127
2010-11-30,5241.41397
2010-12-01,5241.0649
2010-12-02,5240.62265
2010-12-03,5240.07202
2010-12-04,5239.49614
2010-12-05,5238.93298
2010-12-06,5238.36932
2010-12-07,5237.81852
2010-12-08,5237.33225
2010-12-09,5236.81327
2010-12-10,5420.64424
2010-12-11,6088.98708
2010-12-12,6714.95648
2010-12-13,6769.58878
2010-12-14,6516.72845
2010-12-15,6265.82697
2010-12-16,6011.03312
2010-12-17,5759.33634
2010-12-18,5505.08133
2010-12-19,5246.80501
2010-12-20,4992.16684
2010-12-21,4970.85681
2010-12-22,4970.3025
2010-12-23,4969.80154
2010-12-24,4969.39899
2010-12-25,4968.92924
2010-12-26,4968.47774
2010-12-27,4968.00192
2010-12-28,4967.5694
2010-12-29,4967.17362
2010-12-30,4969.33519